Flag for Germany Weather past 2 weeks in Pirmasens, Rhineland-Palatinate, Germany

Now
40 °F

Light rain. Overcast.


Feels Like: 40 °F
Forecast: 27 / 42 °F
Wind: 1 mph from North

Location: Ramstein

Current Time: Feb 27, 2015 at 5:11:47 AM

Latest Report: Feb 27, 2015 at 3:58 AM


Visibility: N/A

Pressure: 29.80 "Hg

Humidity: 90%

Dew point: 37 °F

Location of PirmasensLocation

Historic Weather in Pirmasens — Graph

°F

Pirmasens temperature yesterday

Maximum temperature yesterday: 49 °F (at 3:58 PM)
Minimum temperature yesterday: 37 °F (at 12:58 AM)
Average temperature yesterday: 42 °F

Past Weeks' High & Low Weather Summary

 TemperatureHumidityPressure
High54 °F (Feb 20, 3:58 PM)100% (Feb 12, 2:03 AM)30.75 "Hg (Feb 12, 2:03 AM)
Low24 °F (Feb 14, 2:58 AM)36% (Feb 20, 10:58 PM)29.46 "Hg (Feb 21, 6:04 AM)
Average36 °F82%30.05 "Hg
* Reported Feb 12 1:58 AM — Feb 27 1:58 AM, Pirmasens, Weather by CustomWeather, © 2015

Note: Actual official high and low records may vary slightly from our data, if they occured in-between our weather recording intervals... More about our weather records

Advertising

Pirmasens weather history for previous 24 hours

 ConditionsComfort  
Time TempWeatherWind HumidityBarometerVisibility
1:58 AM
Fri, Feb 27
41 °FLight rain. Low clouds.No wind93%29.83 "HgN/A
12:58 AM41 °FMostly cloudy.1 mph87%29.87 "HgN/A
11:58 PM
Thu, Feb 26
43 °FOvercast.6 mph71%29.88 "HgN/A
10:58 PM45 °FPassing clouds.1 mph61%29.90 "HgN/A
9:58 PM45 °FOvercast.No wind56%29.92 "HgN/A
8:58 PM42 °FPassing clouds.No wind71%29.94 "HgN/A
7:58 PM44 °FOvercast.No wind68%29.97 "HgN/A
6:58 PM46 °FOvercast.No wind59%29.99 "HgN/A
5:58 PM46 °FOvercast.6 mph57%30.00 "HgN/A
4:58 PM48 °FPartly sunny.2 mph56%30.01 "HgN/A
3:58 PM49 °FPartly sunny.6 mph54%30.03 "HgN/A
2:58 PM46 °FOvercast.6 mph57%30.06 "HgN/A
1:58 PM46 °FOvercast.6 mph61%30.08 "HgN/A
12:58 PM46 °FOvercast.2 mph66%30.10 "HgN/A
11:58 AM45 °FOvercast.5 mph73%30.12 "HgN/A
10:58 AM43 °FOvercast.No wind78%30.15 "HgN/A
9:59 AM41 °FOvercast.1 mph87%30.12 "HgN/A
8:59 AM41 °FMostly cloudy.1 mph87%30.13 "HgN/A
8:02 AM39 °FBroken clouds.2 mph93%30.13 "HgN/A
6:58 AM39 °FLow clouds.No wind100%30.17 "HgN/A
5:59 AM39 °FLow clouds.No wind93%30.13 "HgN/A
Weather by CustomWeather, © 2015

See weather overviewHow to use our weather pages